This demonstration page uses our WeatherBlox Daily Observations layout. Learn more.

36.17497, -115.13722

Hourly Observations for November 5, 2019

Temp ( °F °C ) Dew Point ( °F °C ) Humidity (%) Winds ( mph kmh ) Pressure ( in mb ) Visibility ( mi km ) Precip ( " mm )
12:53 am 00:53 Clear 52 11.1 16 -8.9 24 24 NNW 6 9 30.1 1019 10 16.0934 0 0
1:53 am 01:53 Clear 54 12.2 16 -8.9 22 22 W 6 9 30.1 1019 10 16.0934 0 0
2:53 am 02:53 Clear 51 10.6 16 -8.9 25 25 WNW 5 7 30.11 1020 10 16.0934 0 0
3:53 am 03:53 Clear 50 10 19 -7.2 29 29 WSW 5 7 30.12 1020 10 16.0934 0 0
4:53 am 04:53 Clear 48 8.9 18 -7.8 30 30 NW 3 6 30.14 1021 10 16.0934 0 0
5:53 am 05:53 Clear 49 9.4 17 -8.3 28 28 WNW 8 13 30.15 1021 10 16.0934 0 0
6:53 am 06:53 Sunny 52 11.1 13 -10.6 21 21 Calm 30.17 1022 10 16.0934 0 0
7:53 am 07:53 Sunny 57 13.9 20 -6.7 24 24 WNW 3 6 30.19 1022 10 16.0934 0 0
8:53 am 08:53 Sunny 65 18.3 16 -8.9 15 15 Calm 30.18 1022 10 16.0934 0 0
9:53 am 09:53 Sunny 71 21.7 15 -9.4 12 12 Calm 30.17 1022 10 16.0934 0 0
10:53 am 10:53 Sunny 71 21.7 16 -8.9 12 12 Calm 30.16 1021 10 16.0934 0 0
11:53 am 11:53 Sunny 73 22.8 16 -8.9 11 11 ESE 3 6 30.12 1020 10 16.0934 0 0
12:53 pm 12:53 Sunny 76 24.4 16 -8.9 10 10 Calm 30.1 1019 10 16.0934 0 0
1:53 pm 13:53 Sunny 76 24.4 16 -8.9 10 10 Calm 30.07 1018 10 16.0934 0 0
2:53 pm 14:53 Sunny 77 25 16 -8.9 10 10 ESE 3 6 30.06 1018 10 16.0934 0 0
3:53 pm 15:53 Sunny 76 24.4 17 -8.3 11 11 Calm 30.06 1018 10 16.0934 0 0
4:53 pm 16:53 Clear 74 23.3 18 -7.8 12 12 Calm 30.05 1018 10 16.0934 0 0
5:53 pm 17:53 Clear 68 20 23 -5 18 18 W 3 6 30.06 1018 10 16.0934 0 0
6:53 pm 18:53 Clear 62 16.7 24 -4.4 23 23 NW 7 11 30.07 1018 10 16.0934 0 0
7:53 pm 19:53 Clear 61 16.1 21 -6.1 21 21 NW 7 11 30.08 1019 10 16.0934 0 0
8:53 pm 20:53 Clear 60 15.6 22 -5.6 23 23 WNW 6 9 30.07 1018 10 16.0934 0 0
9:53 pm 21:53 Clear 57 13.9 22 -5.6 26 26 NNW 5 7 30.07 1018 10 16.0934 0 0
10:53 pm 22:53 Clear 59 15 23 -5 25 25 Calm 30.06 1018 10 16.0934 0 0
11:53 pm 23:53 Clear 55 12.8 22 -5.6 28 28 Calm 30.07 1018 10 16.0934 0 0

Powered by AerisWeather